LYM62 KASE-KDEN

Flight info

Callsign LYM62
Flight time 0h 45m
Altitude 25000
Route LINDZ1 LINDZ IDENE JNETT LARKS LARKS3
Aircraft PC12/L-SDFGRWY/S

Departure

Time 2026-05-04 02:24
Airport Aspen-Pitkin County Airport (Sardy Field) (KASE)

Arrival

Time 2026-05-04 03:09
Airport Denver International Airport (KDEN)
Time Latitude Longitude Altitude Speed Heading
2026-05-04 02:18 39.22136 -106.86563 7767 ft 0 kts 69°
2026-05-04 02:20 39.22147 -106.86546 7764 ft 10 kts 17°
2026-05-04 02:20 39.22097 -106.86593 7770 ft 17 kts 182°
2026-05-04 02:21 39.22052 -106.86597 7775 ft 3 kts 188°
2026-05-04 02:21 39.22035 -106.86601 7777 ft 8 kts 189°
2026-05-04 02:21 39.21888 -106.86559 7790 ft 42 kts 160°
2026-05-04 02:21 39.21632 -106.86434 7810 ft 36 kts 160°
2026-05-04 02:22 39.21414 -106.86330 7822 ft 31 kts 160°
2026-05-04 02:22 39.21234 -106.86253 7836 ft 18 kts 172°
2026-05-04 02:22 39.21219 -106.86252 7837 ft 0 kts 180°
2026-05-04 02:22 39.21218 -106.86252 7837 ft 2 kts 184°
2026-05-04 02:23 39.21259 -106.86385 7834 ft 43 kts 342°
2026-05-04 02:23 39.21715 -106.86591 7801 ft 93 kts 338°
2026-05-04 02:23 39.22459 -106.86947 7816 ft 129 kts 340°
2026-05-04 02:23 39.23316 -106.87360 8266 ft 136 kts 338°
2026-05-04 02:24 39.23928 -106.87662 8509 ft 142 kts 340°
2026-05-04 02:24 39.24868 -106.88036 9026 ft 142 kts 343°
2026-05-04 02:24 39.25791 -106.88304 9522 ft 135 kts 345°
2026-05-04 02:24 39.26768 -106.88598 9808 ft 148 kts 334°
2026-05-04 02:25 39.27718 -106.89369 9907 ft 175 kts 325°
2026-05-04 02:25 39.28573 -106.90404 10528 ft 161 kts 310°
2026-05-04 02:25 39.29286 -106.91565 10896 ft 170 kts 297°
2026-05-04 02:25 39.29692 -106.93064 11146 ft 185 kts 285°
2026-05-04 02:26 39.29956 -106.94682 11492 ft 189 kts 282°
2026-05-04 02:26 39.30219 -106.96345 11969 ft 189 kts 281°
2026-05-04 02:26 39.30489 -106.98006 12451 ft 188 kts 282°
2026-05-04 02:26 39.30753 -106.99652 12954 ft 186 kts 282°
2026-05-04 02:27 39.31011 -107.01290 13471 ft 185 kts 282°
2026-05-04 02:27 39.31267 -107.02918 13954 ft 184 kts 282°
2026-05-04 02:27 39.31524 -107.04522 14427 ft 182 kts 282°
2026-05-04 02:27 39.32054 -107.05997 14897 ft 184 kts 305°
2026-05-04 02:28 39.32903 -107.07231 15383 ft 183 kts 309°
2026-05-04 02:28 39.33754 -107.08444 15867 ft 182 kts 309°
2026-05-04 02:28 39.34599 -107.09655 16364 ft 181 kts 309°
2026-05-04 02:28 39.35437 -107.10857 16877 ft 180 kts 308°
2026-05-04 02:29 39.36269 -107.12052 17384 ft 178 kts 308°
2026-05-04 02:29 39.37097 -107.13241 17922 ft 177 kts 308°
2026-05-04 02:29 39.37995 -107.14326 18448 ft 179 kts 324°
2026-05-04 02:29 39.39183 -107.14857 18928 ft 186 kts 348°
2026-05-04 02:30 39.40468 -107.14662 19410 ft 194 kts 14°
2026-05-04 02:30 39.41677 -107.13878 19903 ft 195 kts 22°
2026-05-04 02:30 39.42870 -107.13044 20401 ft 195 kts 22°
2026-05-04 02:30 39.44061 -107.12218 20900 ft 194 kts 21°
2026-05-04 02:31 39.45250 -107.11383 21417 ft 195 kts 26°
2026-05-04 02:31 39.46235 -107.10146 21951 ft 201 kts 52°
2026-05-04 02:31 39.46766 -107.08466 22506 ft 204 kts 79°
2026-05-04 02:31 39.46730 -107.06646 23059 ft 201 kts 105°
2026-05-04 02:32 39.46402 -107.04925 23588 ft 193 kts 107°
2026-05-04 02:32 39.46084 -107.03285 24046 ft 184 kts 107°
2026-05-04 02:32 39.45783 -107.01729 24490 ft 171 kts 107°
2026-05-04 02:32 39.45511 -107.00302 24907 ft 158 kts 105°
2026-05-04 02:33 39.45397 -106.98866 25185 ft 168 kts 92°
2026-05-04 02:33 39.45403 -106.97308 25440 ft 183 kts 89°
2026-05-04 02:33 39.45399 -106.95504 25508 ft 208 kts 92°
2026-05-04 02:33 39.45340 -106.93771 26288 ft 178 kts 93°
2026-05-04 02:34 39.45337 -106.92138 26462 ft 195 kts 85°
2026-05-04 02:34 39.45600 -106.90308 26570 ft 207 kts 65°
2026-05-04 02:34 39.46146 -106.88643 26915 ft 208 kts 64°
2026-05-04 02:34 39.46715 -106.86759 26600 ft 237 kts 64°
2026-05-04 02:35 39.47339 -106.84657 26291 ft 261 kts 66°
2026-05-04 02:35 39.47984 -106.82412 26250 ft 263 kts 66°
2026-05-04 02:35 39.48617 -106.80180 25952 ft 270 kts 67°
2026-05-04 02:35 39.49217 -106.77933 26420 ft 227 kts 69°
2026-05-04 02:36 39.49658 -106.76159 26624 ft 207 kts 67°
2026-05-04 02:36 39.50245 -106.74150 25527 ft 256 kts 68°
2026-05-04 02:36 39.50739 -106.71918 25249 ft 251 kts 71°
2026-05-04 02:36 39.51117 -106.69979 25723 ft 208 kts 75°
2026-05-04 02:37 39.51376 -106.68011 25535 ft 231 kts 87°
2026-05-04 02:37 39.51265 -106.66009 25581 ft 236 kts 96°
2026-05-04 02:37 39.51022 -106.63809 25403 ft 251 kts 99°
2026-05-04 02:37 39.50752 -106.61607 25579 ft 249 kts 99°
2026-05-04 02:38 39.50480 -106.59329 25387 ft 265 kts 99°
2026-05-04 02:38 39.50196 -106.56903 25198 ft 280 kts 99°
2026-05-04 02:38 39.49901 -106.54348 25015 ft 293 kts 99°
2026-05-04 02:38 39.49602 -106.51724 24976 ft 295 kts 99°
2026-05-04 02:39 39.49307 -106.49097 24971 ft 295 kts 99°
2026-05-04 02:39 39.49013 -106.46461 24985 ft 295 kts 98°
2026-05-04 02:39 39.48725 -106.43833 24975 ft 294 kts 98°
2026-05-04 02:39 39.48441 -106.41212 24973 ft 294 kts 98°
2026-05-04 02:40 39.48159 -106.38590 24974 ft 293 kts 98°
2026-05-04 02:40 39.47879 -106.35973 24985 ft 294 kts 98°
2026-05-04 02:40 39.47600 -106.33351 24990 ft 295 kts 98°
2026-05-04 02:40 39.47324 -106.30719 24987 ft 296 kts 98°
2026-05-04 02:41 39.47049 -106.28078 24988 ft 296 kts 98°
2026-05-04 02:41 39.46776 -106.25437 24990 ft 296 kts 98°
2026-05-04 02:41 39.46505 -106.22794 24986 ft 296 kts 98°
2026-05-04 02:41 39.46238 -106.20159 24984 ft 295 kts 98°
2026-05-04 02:42 39.45977 -106.17556 24984 ft 295 kts 98°
2026-05-04 02:42 39.45714 -106.14921 24982 ft 295 kts 98°
2026-05-04 02:42 39.45455 -106.12285 24955 ft 296 kts 97°
2026-05-04 02:42 39.45191 -106.09594 24689 ft 305 kts 97°
2026-05-04 02:43 39.44925 -106.06867 24406 ft 306 kts 97°
2026-05-04 02:43 39.44658 -106.04127 24128 ft 307 kts 97°
2026-05-04 02:43 39.44390 -106.01378 23846 ft 309 kts 97°
2026-05-04 02:43 39.44120 -105.98615 23571 ft 310 kts 97°
2026-05-04 02:44 39.43849 -105.95845 23248 ft 310 kts 97°
2026-05-04 02:44 39.43576 -105.93078 22926 ft 309 kts 97°
2026-05-04 02:44 39.43308 -105.90334 22602 ft 308 kts 97°
2026-05-04 02:44 39.43042 -105.87595 22279 ft 305 kts 97°
2026-05-04 02:45 39.42781 -105.84889 21963 ft 302 kts 97°
2026-05-04 02:45 39.42527 -105.82246 21659 ft 299 kts 97°
2026-05-04 02:45 39.42268 -105.79538 21234 ft 301 kts 97°
2026-05-04 02:45 39.42014 -105.76871 20779 ft 303 kts 97°
2026-05-04 02:46 39.41757 -105.74158 20335 ft 304 kts 97°
2026-05-04 02:46 39.41500 -105.71439 19892 ft 305 kts 97°
2026-05-04 02:46 39.41194 -105.68738 19457 ft 303 kts 105°
2026-05-04 02:46 39.40295 -105.66310 18998 ft 298 kts 126°
2026-05-04 02:47 39.39072 -105.64174 18572 ft 294 kts 131°
2026-05-04 02:47 39.37797 -105.62116 18147 ft 293 kts 131°
2026-05-04 02:47 39.36518 -105.60077 17663 ft 291 kts 131°
2026-05-04 02:47 39.35269 -105.58040 17205 ft 289 kts 126°
2026-05-04 02:48 39.34298 -105.55786 16934 ft 282 kts 117°
2026-05-04 02:48 39.33479 -105.53547 16925 ft 269 kts 116°
2026-05-04 02:48 39.32707 -105.51394 16920 ft 259 kts 116°
2026-05-04 02:48 39.31968 -105.49307 16903 ft 252 kts 116°
2026-05-04 02:49 39.31256 -105.47272 16903 ft 246 kts 116°
2026-05-04 02:49 39.30566 -105.45274 16907 ft 242 kts 115°
2026-05-04 02:49 39.29888 -105.43288 16907 ft 240 kts 115°
2026-05-04 02:49 39.29226 -105.41325 16907 ft 237 kts 115°
2026-05-04 02:50 39.28574 -105.39370 16916 ft 237 kts 115°
2026-05-04 02:50 39.27939 -105.37446 16914 ft 236 kts 115°
2026-05-04 02:50 39.27304 -105.35497 16893 ft 235 kts 114°
2026-05-04 02:50 39.26638 -105.33565 16890 ft 235 kts 118°
2026-05-04 02:51 39.26180 -105.31569 16895 ft 235 kts 90°
2026-05-04 02:51 39.26584 -105.29563 16902 ft 231 kts 60°
2026-05-04 02:51 39.27490 -105.27868 16897 ft 229 kts 47°
2026-05-04 02:51 39.28475 -105.26254 16895 ft 229 kts 47°
2026-05-04 02:52 39.29497 -105.24631 16575 ft 242 kts 46°
2026-05-04 02:52 39.30602 -105.22914 16129 ft 255 kts 46°
2026-05-04 02:52 39.31752 -105.21116 15676 ft 264 kts 47°
2026-05-04 02:52 39.32932 -105.19257 15236 ft 269 kts 47°
2026-05-04 02:53 39.34112 -105.17400 14805 ft 272 kts 47°
2026-05-04 02:53 39.35317 -105.15506 14375 ft 273 kts 47°
2026-05-04 02:53 39.36521 -105.13614 13952 ft 272 kts 47°
2026-05-04 02:53 39.37721 -105.11727 13512 ft 271 kts 47°
2026-05-04 02:54 39.38914 -105.09848 13054 ft 269 kts 48°
2026-05-04 02:54 39.39916 -105.07810 12581 ft 271 kts 63°
2026-05-04 02:54 39.40432 -105.05466 12116 ft 271 kts 79°
2026-05-04 02:54 39.40686 -105.03054 11678 ft 270 kts 80°
2026-05-04 02:55 39.41186 -104.98262 10993 ft 264 kts 80°
2026-05-04 02:55 39.41429 -104.95982 10991 ft 249 kts 80°
2026-05-04 02:55 39.41660 -104.93808 10991 ft 239 kts 80°
2026-05-04 02:56 39.41881 -104.91714 10998 ft 232 kts 80°
2026-05-04 02:56 39.42098 -104.89661 10998 ft 228 kts 80°
2026-05-04 02:56 39.42310 -104.87644 10998 ft 225 kts 80°
2026-05-04 02:56 39.42523 -104.85618 10836 ft 231 kts 80°
2026-05-04 02:57 39.42738 -104.83559 10605 ft 237 kts 80°
2026-05-04 02:57 39.42964 -104.81400 10365 ft 241 kts 80°
2026-05-04 02:57 39.43186 -104.79274 10133 ft 243 kts 80°
2026-05-04 02:57 39.43411 -104.77114 9897 ft 243 kts 79°
2026-05-04 02:58 39.43876 -104.75008 9658 ft 238 kts 64°
2026-05-04 02:58 39.44550 -104.73100 9427 ft 235 kts 56°
2026-05-04 02:58 39.45606 -104.71515 9178 ft 232 kts 37°
2026-05-04 02:58 39.46969 -104.70423 8933 ft 229 kts 24°
2026-05-04 02:59 39.48393 -104.69545 8846 ft 222 kts 20°
2026-05-04 02:59 39.49863 -104.69148 8850 ft 213 kts
2026-05-04 02:59 39.51328 -104.69131 8853 ft 208 kts 360°
2026-05-04 02:59 39.52765 -104.69113 8858 ft 205 kts 360°
2026-05-04 03:00 39.54187 -104.69096 8835 ft 203 kts 356°
2026-05-04 03:00 39.55600 -104.69064 8813 ft 203 kts 357°
2026-05-04 03:00 39.57010 -104.69007 8765 ft 203 kts 356°
2026-05-04 03:00 39.58424 -104.69032 8731 ft 203 kts 355°
2026-05-04 03:01 39.59816 -104.69035 8699 ft 202 kts 356°
2026-05-04 03:01 39.61222 -104.69014 8704 ft 201 kts 357°
2026-05-04 03:01 39.62569 -104.68994 8699 ft 184 kts 356°
2026-05-04 03:01 39.63780 -104.68974 8704 ft 162 kts 356°
2026-05-04 03:02 39.64826 -104.68957 8707 ft 140 kts 355°
2026-05-04 03:02 39.65754 -104.68949 8699 ft 128 kts 354°
2026-05-04 03:02 39.66612 -104.68942 8700 ft 119 kts 354°
2026-05-04 03:02 39.67434 -104.68937 8659 ft 118 kts 354°
2026-05-04 03:03 39.68256 -104.68924 8592 ft 119 kts 356°
2026-05-04 03:03 39.69097 -104.68889 8492 ft 121 kts 356°
2026-05-04 03:03 39.69928 -104.68837 8471 ft 118 kts 356°
2026-05-04 03:03 39.70757 -104.68804 8360 ft 121 kts 354°
2026-05-04 03:04 39.71590 -104.68836 8295 ft 119 kts 350°
2026-05-04 03:04 39.72435 -104.68824 8155 ft 121 kts 355°
2026-05-04 03:04 39.73222 -104.68764 8088 ft 111 kts 356°
2026-05-04 03:04 39.74024 -104.68766 7790 ft 119 kts 354°
2026-05-04 03:05 39.74842 -104.68746 7642 ft 113 kts 355°
2026-05-04 03:05 39.75600 -104.68736 7557 ft 107 kts 353°
2026-05-04 03:05 39.76345 -104.68703 7449 ft 105 kts 355°
2026-05-04 03:05 39.77069 -104.68758 7327 ft 106 kts 348°
2026-05-04 03:06 39.77812 -104.68856 7182 ft 105 kts 352°
2026-05-04 03:06 39.78559 -104.68771 7005 ft 108 kts 354°
2026-05-04 03:06 39.79268 -104.68737 6860 ft 99 kts 353°
2026-05-04 03:06 39.79963 -104.68731 6664 ft 98 kts 353°
2026-05-04 03:07 39.80642 -104.68753 6565 ft 97 kts 355°
2026-05-04 03:07 39.81321 -104.68807 6492 ft 96 kts 352°
2026-05-04 03:07 39.81983 -104.68796 6418 ft 96 kts 359°
2026-05-04 03:07 39.82658 -104.68780 6283 ft 97 kts 355°
2026-05-04 03:08 39.83347 -104.68760 6145 ft 103 kts 357°
2026-05-04 03:08 39.84029 -104.68744 6042 ft 96 kts 358°
2026-05-04 03:08 39.84703 -104.68711 5862 ft 95 kts 348°
2026-05-04 03:08 39.85334 -104.68719 5674 ft 95 kts 353°
2026-05-04 03:09 39.85961 -104.68674 5627 ft 86 kts 349°
2026-05-04 03:09 39.86563 -104.68708 5395 ft 87 kts 347°
2026-05-04 03:09 39.87087 -104.68729 5360 ft 64 kts 353°
2026-05-04 03:09 39.87351 -104.68687 5361 ft 30 kts 30°
2026-05-04 03:10 39.87500 -104.68656 5362 ft 23 kts 57°
2026-05-04 03:10 39.87403 -104.68478 5360 ft 30 kts 180°
2026-05-04 03:10 39.87210 -104.68494 5362 ft 27 kts 174°
2026-05-04 03:10 39.87025 -104.68493 5362 ft 26 kts 187°
2026-05-04 03:11 39.86852 -104.68499 5362 ft 24 kts 182°